Time,TemperatureF,DewpointF,PressureIn,WindDirection,WindDirectionDegrees,WindSpeedMPH,WindSpeedGustMPH,Humidity,HourlyPrecipIn,Conditions,Clouds,dailyrainin,SoftwareType,DateUTC
2013-05-30 00:02:00,76.3,63.1,29.93,South,186,3.0,9.0,64,0.00,,,0.00,meteohub,2013-05-30 05:02:00,
2013-05-30 00:07:00,76.3,63.1,29.93,South,191,6.0,9.0,64,0.00,,,0.00,meteohub,2013-05-30 05:07:00,
2013-05-30 00:12:00,76.1,63.0,29.93,South,184,8.0,9.0,64,0.00,,,0.00,meteohub,2013-05-30 05:12:00,
2013-05-30 00:17:00,75.9,63.3,29.94,South,190,2.0,10.0,65,0.00,,,0.00,meteohub,2013-05-30 05:17:00,
2013-05-30 00:22:00,75.7,63.1,29.93,South,176,7.0,11.0,65,0.00,,,0.00,meteohub,2013-05-30 05:22:00,
2013-05-30 00:27:00,75.7,63.1,29.94,South,170,4.0,11.0,65,0.00,,,0.00,meteohub,2013-05-30 05:27:00,
2013-05-30 00:32:00,75.7,63.1,29.94,South,182,5.0,11.0,65,0.00,,,0.00,meteohub,2013-05-30 05:32:00,
2013-05-30 00:37:00,75.7,63.1,29.94,South,190,6.0,10.0,65,0.00,,,0.00,meteohub,2013-05-30 05:37:00,
2013-05-30 00:42:00,75.7,63.5,29.94,South,178,3.0,8.0,66,0.00,,,0.00,meteohub,2013-05-30 05:42:00,
2013-05-30 00:47:00,75.7,63.1,29.94,South,175,4.0,8.0,65,0.00,,,0.00,meteohub,2013-05-30 05:47:00,
2013-05-30 00:52:00,75.7,63.5,29.94,South,169,5.0,8.0,66,0.00,,,0.00,meteohub,2013-05-30 05:52:00,
2013-05-30 00:57:00,75.6,63.3,29.94,South,183,3.0,9.0,66,0.00,,,0.00,meteohub,2013-05-30 05:57:00,
2013-05-30 01:02:00,75.6,63.3,29.94,South,174,6.0,9.0,66,0.00,,,0.00,meteohub,2013-05-30 06:02:00,
2013-05-30 01:07:00,75.4,63.7,29.94,SSE,168,6.0,9.0,67,0.00,,,0.00,meteohub,2013-05-30 06:07:00,
2013-05-30 01:12:00,75.4,63.7,29.94,South,171,5.0,9.0,67,0.00,,,0.00,meteohub,2013-05-30 06:12:00,
2013-05-30 01:17:00,75.4,63.7,29.94,SSW,213,4.0,9.0,67,0.00,,,0.00,meteohub,2013-05-30 06:17:00,
2013-05-30 01:22:00,75.2,63.5,29.94,South,184,6.0,7.0,67,0.00,,,0.00,meteohub,2013-05-30 06:22:00,
2013-05-30 01:27:00,75.0,63.3,29.94,SSE,157,3.0,8.0,67,0.00,,,0.00,meteohub,2013-05-30 06:27:00,
2013-05-30 01:32:00,74.8,63.1,29.94,South,172,1.0,9.0,67,0.00,,,0.00,meteohub,2013-05-30 06:32:00,
2013-05-30 01:37:00,74.8,63.5,29.93,South,184,5.0,9.0,68,0.00,,,0.00,meteohub,2013-05-30 06:37:00,
2013-05-30 01:42:00,74.7,63.3,29.93,South,174,2.0,9.0,68,0.00,,,0.00,meteohub,2013-05-30 06:42:00,
2013-05-30 01:47:00,74.7,63.3,29.93,South,181,5.0,8.0,68,0.00,,,0.00,meteohub,2013-05-30 06:47:00,
2013-05-30 01:52:00,74.7,63.9,29.93,South,179,4.0,8.0,69,0.00,,,0.00,meteohub,2013-05-30 06:52:00,
2013-05-30 01:57:00,74.5,63.7,29.93,SSE,168,5.0,11.0,69,0.00,,,0.00,meteohub,2013-05-30 06:57:00,
2013-05-30 02:02:00,74.5,63.7,29.93,South,182,8.0,11.0,69,0.00,,,0.00,meteohub,2013-05-30 07:02:00,
2013-05-30 02:07:00,74.5,63.7,29.93,South,190,5.0,12.0,69,0.00,,,0.00,meteohub,2013-05-30 07:07:00,
2013-05-30 02:12:00,74.3,63.9,29.93,SSW,200,4.0,12.0,70,0.00,,,0.00,meteohub,2013-05-30 07:12:00,
2013-05-30 02:17:00,74.1,63.7,29.93,South,171,4.0,12.0,70,0.00,,,0.00,meteohub,2013-05-30 07:17:00,
2013-05-30 02:22:00,74.1,63.7,29.93,South,189,4.0,9.0,70,0.00,,,0.00,meteohub,2013-05-30 07:22:00,
2013-05-30 02:27:00,74.1,64.0,29.93,South,171,4.0,10.0,71,0.00,,,0.00,meteohub,2013-05-30 07:27:00,
2013-05-30 02:32:00,74.1,64.0,29.92,SSE,167,8.0,11.0,71,0.00,,,0.00,meteohub,2013-05-30 07:32:00,
2013-05-30 02:37:00,73.9,63.9,29.92,South,174,6.0,11.0,71,0.00,,,0.00,meteohub,2013-05-30 07:37:00,
2013-05-30 02:42:00,73.9,64.4,29.92,South,172,5.0,12.0,72,0.00,,,0.00,meteohub,2013-05-30 07:42:00,
2013-05-30 02:47:00,73.9,63.9,29.92,SSE,168,2.0,12.0,71,0.00,,,0.00,meteohub,2013-05-30 07:47:00,
2013-05-30 02:52:00,74.1,64.0,29.92,South,182,7.0,12.0,71,0.00,,,0.00,meteohub,2013-05-30 07:52:00,
2013-05-30 02:57:00,73.9,64.4,29.92,South,182,4.0,12.0,72,0.00,,,0.00,meteohub,2013-05-30 07:57:00,
2013-05-30 03:02:00,73.9,63.9,29.91,South,179,7.0,12.0,71,0.00,,,0.00,meteohub,2013-05-30 08:02:00,
2013-05-30 03:07:00,73.9,63.9,29.91,SSE,148,4.0,12.0,71,0.00,,,0.00,meteohub,2013-05-30 08:07:00,
2013-05-30 03:12:00,74.3,64.2,29.91,South,179,8.0,11.0,71,0.00,,,0.00,meteohub,2013-05-30 08:12:00,
2013-05-30 03:17:00,74.5,64.4,29.92,SSE,168,6.0,11.0,71,0.00,,,0.00,meteohub,2013-05-30 08:17:00,
2013-05-30 03:22:00,74.5,64.4,29.92,SSE,150,5.0,11.0,71,0.00,,,0.00,meteohub,2013-05-30 08:22:00,
2013-05-30 03:27:00,74.5,64.4,29.92,SSW,211,4.0,11.0,71,0.00,,,0.00,meteohub,2013-05-30 08:27:00,
2013-05-30 03:32:00,74.5,64.4,29.92,South,169,8.0,11.0,71,0.00,,,0.00,meteohub,2013-05-30 08:32:00,
2013-05-30 03:37:00,74.3,64.2,29.92,South,186,5.0,11.0,71,0.00,,,0.00,meteohub,2013-05-30 08:37:00,
2013-05-30 03:42:00,74.3,64.2,29.92,South,171,6.0,10.0,71,0.00,,,0.00,meteohub,2013-05-30 08:42:00,
2013-05-30 03:47:00,74.1,64.6,29.92,South,175,8.0,10.0,72,0.00,,,0.00,meteohub,2013-05-30 08:47:00,
2013-05-30 03:52:00,74.1,64.6,29.92,SSE,153,6.0,10.0,72,0.00,,,0.00,meteohub,2013-05-30 08:52:00,
2013-05-30 03:57:00,74.1,64.0,29.92,SE,144,5.0,10.0,71,0.00,,,0.00,meteohub,2013-05-30 08:57:00,
2013-05-30 04:02:00,74.1,64.6,29.92,SSE,163,5.0,13.0,72,0.00,,,0.00,meteohub,2013-05-30 09:02:00,
2013-05-30 04:07:00,74.1,64.0,29.92,SSW,212,5.0,13.0,71,0.00,,,0.00,meteohub,2013-05-30 09:07:00,
2013-05-30 04:12:00,74.7,64.6,29.92,SE,146,1.0,13.0,71,0.00,,,0.00,meteohub,2013-05-30 09:12:00,
2013-05-30 04:17:00,74.7,64.6,29.92,South,176,5.0,11.0,71,0.00,,,0.00,meteohub,2013-05-30 09:17:00,
2013-05-30 04:22:00,74.5,64.4,29.92,SSE,165,5.0,12.0,71,0.00,,,0.00,meteohub,2013-05-30 09:22:00,
2013-05-30 04:27:00,74.7,64.2,29.92,South,169,2.0,12.0,70,0.00,,,0.00,meteohub,2013-05-30 09:27:00,
2013-05-30 04:32:00,74.5,64.4,29.92,SSW,212,5.0,12.0,71,0.00,,,0.00,meteohub,2013-05-30 09:32:00,
2013-05-30 04:37:00,74.5,64.4,29.92,SSE,155,4.0,12.0,71,0.00,,,0.00,meteohub,2013-05-30 09:37:00,
2013-05-30 04:42:00,74.5,64.4,29.93,South,172,5.0,12.0,71,0.00,,,0.00,meteohub,2013-05-30 09:42:00,
2013-05-30 04:47:00,74.7,64.6,29.93,SSE,150,4.0,12.0,71,0.00,,,0.00,meteohub,2013-05-30 09:47:00,
2013-05-30 04:52:00,74.7,64.2,29.93,SSW,205,4.0,11.0,70,0.00,,,0.00,meteohub,2013-05-30 09:52:00,
2013-05-30 04:57:00,74.5,64.4,29.93,SSE,166,3.0,10.0,71,0.00,,,0.00,meteohub,2013-05-30 09:57:00,
2013-05-30 05:02:00,74.7,64.2,29.93,SSE,153,5.0,10.0,70,0.00,,,0.00,meteohub,2013-05-30 10:02:00,
2013-05-30 05:07:00,74.7,64.6,29.93,SE,141,6.0,14.0,71,0.00,,,0.00,meteohub,2013-05-30 10:07:00,
2013-05-30 05:12:00,74.7,64.6,29.93,South,175,5.0,14.0,71,0.00,,,0.00,meteohub,2013-05-30 10:12:00,
2013-05-30 05:17:00,74.7,64.6,29.93,SE,143,12.0,14.0,71,0.00,,,0.00,meteohub,2013-05-30 10:17:00,
2013-05-30 05:22:00,74.5,64.9,29.94,South,169,4.0,15.0,72,0.00,,,0.00,meteohub,2013-05-30 10:22:00,
2013-05-30 05:27:00,74.7,64.6,29.94,SSE,161,4.0,15.0,71,0.00,,,0.00,meteohub,2013-05-30 10:27:00,
2013-05-30 05:33:00,74.7,64.6,29.94,South,171,2.0,15.0,71,0.00,,,0.00,meteohub,2013-05-30 10:33:00,
2013-05-30 05:38:00,74.7,65.1,29.94,SSW,202,3.0,14.0,72,0.00,,,0.00,meteohub,2013-05-30 10:38:00,
2013-05-30 05:43:00,74.7,64.6,29.94,SSE,153,9.0,14.0,71,0.00,,,0.00,meteohub,2013-05-30 10:43:00,
2013-05-30 05:48:00,74.8,64.8,29.94,SSE,153,6.0,12.0,71,0.00,,,0.00,meteohub,2013-05-30 10:48:00,
2013-05-30 05:53:00,74.8,64.8,29.94,South,178,8.0,12.0,71,0.00,,,0.00,meteohub,2013-05-30 10:53:00,
2013-05-30 05:58:00,74.8,65.1,29.94,South,187,7.0,12.0,72,0.00,,,0.00,meteohub,2013-05-30 10:58:00,
2013-05-30 06:03:00,74.8,65.1,29.94,SSE,156,9.0,13.0,72,0.00,,,0.00,meteohub,2013-05-30 11:03:00,
2013-05-30 06:08:00,74.7,65.1,29.94,South,190,10.0,18.0,72,0.00,,,0.00,meteohub,2013-05-30 11:08:00,
2013-05-30 06:13:00,74.8,65.1,29.94,South,184,6.0,18.0,72,0.00,,,0.00,meteohub,2013-05-30 11:13:00,
2013-05-30 06:18:00,74.8,64.8,29.94,SE,145,6.0,18.0,71,0.00,,,0.00,meteohub,2013-05-30 11:18:00,
2013-05-30 06:23:00,75.0,64.9,29.94,South,185,5.0,14.0,71,0.00,,,0.00,meteohub,2013-05-30 11:23:00,
2013-05-30 06:28:00,74.8,65.1,29.94,South,184,6.0,14.0,72,0.00,,,0.00,meteohub,2013-05-30 11:28:00,
2013-05-30 06:34:00,74.8,65.1,29.94,SE,144,13.0,15.0,72,0.00,,,0.00,meteohub,2013-05-30 11:34:00,
2013-05-30 06:39:00,75.0,65.3,29.94,SSE,168,11.0,15.0,72,0.00,,,0.00,meteohub,2013-05-30 11:39:00,
2013-05-30 06:44:00,75.6,65.8,29.94,South,175,5.0,15.0,72,0.00,,,0.00,meteohub,2013-05-30 11:44:00,
2013-05-30 06:49:00,75.7,65.7,29.94,SSW,194,11.0,15.0,71,0.00,,,0.00,meteohub,2013-05-30 11:49:00,
2013-05-30 06:54:00,75.4,65.7,29.94,South,183,6.0,15.0,72,0.00,,,0.00,meteohub,2013-05-30 11:54:00,
2013-05-30 06:59:00,75.2,65.5,29.94,SE,141,10.0,13.0,72,0.00,,,0.00,meteohub,2013-05-30 11:59:00,
2013-05-30 07:04:00,75.4,65.7,29.95,SSE,161,4.0,15.0,72,0.00,,,0.00,meteohub,2013-05-30 12:04:00,
2013-05-30 07:09:00,75.6,65.8,29.95,SE,142,4.0,16.0,72,0.00,,,0.00,meteohub,2013-05-30 12:09:00,
2013-05-30 07:14:00,75.7,66.0,29.95,South,191,8.0,16.0,72,0.00,,,0.00,meteohub,2013-05-30 12:14:00,
2013-05-30 07:19:00,75.9,65.8,29.95,SSE,159,3.0,16.0,71,0.00,,,0.00,meteohub,2013-05-30 12:19:00,
2013-05-30 07:24:00,75.9,65.8,29.95,South,178,8.0,16.0,71,0.00,,,0.00,meteohub,2013-05-30 12:24:00,
2013-05-30 07:29:00,75.7,66.0,29.95,South,183,10.0,14.0,72,0.00,,,0.00,meteohub,2013-05-30 12:29:00,
2013-05-30 07:34:00,76.3,66.2,29.95,SSW,200,10.0,20.0,71,0.00,,,0.00,meteohub,2013-05-30 12:34:00,
2013-05-30 07:39:00,76.8,66.7,29.95,South,176,9.0,20.0,71,0.00,,,0.00,meteohub,2013-05-30 12:39:00,
2013-05-30 07:44:00,76.8,66.7,29.95,South,176,5.0,20.0,71,0.00,,,0.00,meteohub,2013-05-30 12:44:00,
2013-05-30 07:49:00,77.0,66.4,29.95,South,176,9.0,14.0,70,0.00,,,0.00,meteohub,2013-05-30 12:49:00,
2013-05-30 07:54:00,76.6,66.6,29.95,South,179,7.0,15.0,71,0.00,,,0.00,meteohub,2013-05-30 12:54:00,
2013-05-30 07:59:00,77.0,66.4,29.95,South,185,6.0,15.0,70,0.00,,,0.00,meteohub,2013-05-30 12:59:00,
2013-05-30 08:04:00,76.6,66.6,29.95,South,191,6.0,15.0,71,0.00,,,0.00,meteohub,2013-05-30 13:04:00,
2013-05-30 08:10:00,76.3,66.2,29.95,SSW,209,7.0,15.0,71,0.00,,,0.00,meteohub,2013-05-30 13:10:00,
2013-05-30 08:15:00,76.5,66.7,29.94,SSW,192,6.0,15.0,72,0.00,,,0.00,meteohub,2013-05-30 13:15:00,
2013-05-30 08:20:00,77.2,67.1,29.95,SSE,153,5.0,15.0,71,0.00,,,0.00,meteohub,2013-05-30 13:20:00,
2013-05-30 08:25:00,77.7,67.1,29.95,South,180,7.0,15.0,70,0.00,,,0.00,meteohub,2013-05-30 13:25:00,
2013-05-30 08:30:00,77.9,66.9,29.95,South,182,5.0,14.0,69,0.00,,,0.00,meteohub,2013-05-30 13:30:00,
2013-05-30 08:35:00,78.6,67.6,29.95,South,178,5.0,14.0,69,0.00,,,0.00,meteohub,2013-05-30 13:35:00,
2013-05-30 08:40:00,78.4,67.5,29.95,SSW,199,8.0,16.0,69,0.00,,,0.00,meteohub,2013-05-30 13:40:00,
2013-05-30 08:45:00,78.6,67.6,29.95,SSW,202,9.0,16.0,69,0.00,,,0.00,meteohub,2013-05-30 13:45:00,
2013-05-30 08:50:00,78.6,67.6,29.95,SSW,200,18.0,18.0,69,0.00,,,0.00,meteohub,2013-05-30 13:50:00,
2013-05-30 08:55:00,79.2,67.6,29.95,SW,221,11.0,19.0,68,0.00,,,0.00,meteohub,2013-05-30 13:55:00,
2013-05-30 09:00:00,79.5,68.0,29.95,South,186,8.0,20.0,68,0.00,,,0.00,meteohub,2013-05-30 14:00:00,
2013-05-30 09:05:00,80.4,68.9,29.95,South,191,12.0,20.0,68,0.00,,,0.00,meteohub,2013-05-30 14:05:00,
2013-05-30 09:10:00,80.6,68.2,29.94,South,171,8.0,22.0,66,0.00,,,0.00,meteohub,2013-05-30 14:10:00,
2013-05-30 09:15:00,81.1,68.7,29.94,SW,217,8.0,22.0,66,0.00,,,0.00,meteohub,2013-05-30 14:15:00,
2013-05-30 09:20:00,80.8,68.4,29.94,SSW,198,9.0,23.0,66,0.00,,,0.00,meteohub,2013-05-30 14:20:00,
2013-05-30 09:25:00,80.2,68.4,29.94,SSW,207,19.0,24.0,67,0.00,,,0.00,meteohub,2013-05-30 14:25:00,
2013-05-30 09:30:00,80.6,68.2,29.94,South,170,8.0,24.0,66,0.00,,,0.00,meteohub,2013-05-30 14:30:00,
2013-05-30 09:36:00,81.1,68.7,29.93,South,169,10.0,23.0,66,0.00,,,0.00,meteohub,2013-05-30 14:36:00,
2013-05-30 09:41:00,81.0,68.5,29.93,South,169,12.0,23.0,66,0.00,,,0.00,meteohub,2013-05-30 14:41:00,
2013-05-30 09:46:00,80.2,68.4,29.93,South,180,20.0,22.0,67,0.00,,,0.00,meteohub,2013-05-30 14:46:00,
2013-05-30 09:51:00,80.2,68.4,29.93,SSE,162,4.0,22.0,67,0.00,,,0.00,meteohub,2013-05-30 14:51:00,
2013-05-30 09:56:00,80.6,68.2,29.93,South,187,10.0,22.0,66,0.00,,,0.00,meteohub,2013-05-30 14:56:00,
2013-05-30 10:01:00,80.6,68.2,29.93,South,186,10.0,22.0,66,0.00,,,0.00,meteohub,2013-05-30 15:01:00,
2013-05-30 10:06:00,81.0,68.5,29.93,South,188,6.0,21.0,66,0.00,,,0.00,meteohub,2013-05-30 15:06:00,
2013-05-30 10:11:00,81.1,68.2,29.92,SW,222,6.0,19.0,65,0.00,,,0.00,meteohub,2013-05-30 15:11:00,
2013-05-30 10:16:00,81.1,68.2,29.92,SSW,202,16.0,24.0,65,0.00,,,0.00,meteohub,2013-05-30 15:16:00,
2013-05-30 10:21:00,81.3,67.5,29.92,South,184,10.0,27.0,63,0.00,,,0.00,meteohub,2013-05-30 15:21:00,
2013-05-30 10:26:00,82.0,67.6,29.92,SSE,150,4.0,27.0,62,0.00,,,0.00,meteohub,2013-05-30 15:26:00,
2013-05-30 10:31:00,82.8,68.0,29.92,South,170,16.0,27.0,61,0.00,,,0.00,meteohub,2013-05-30 15:31:00,
2013-05-30 10:36:00,82.4,68.5,29.92,South,184,6.0,27.0,63,0.00,,,0.00,meteohub,2013-05-30 15:36:00,
2013-05-30 10:41:00,82.6,67.8,29.93,South,182,15.0,21.0,61,0.00,,,0.00,meteohub,2013-05-30 15:41:00,
2013-05-30 10:46:00,82.8,68.0,29.93,SSW,203,10.0,21.0,61,0.00,,,0.00,meteohub,2013-05-30 15:46:00,
2013-05-30 10:51:00,84.0,68.2,29.93,South,183,12.0,28.0,59,0.00,,,0.00,meteohub,2013-05-30 15:51:00,
2013-05-30 10:56:00,83.7,66.7,29.93,South,191,16.0,28.0,57,0.00,,,0.00,meteohub,2013-05-30 15:56:00,
2013-05-30 11:01:00,83.1,66.7,29.93,SW,221,6.0,24.0,58,0.00,,,0.00,meteohub,2013-05-30 16:01:00,
2013-05-30 11:07:00,83.3,66.9,29.93,SW,226,14.0,24.0,58,0.00,,,0.00,meteohub,2013-05-30 16:07:00,
2013-05-30 11:12:00,83.5,67.1,29.93,South,175,11.0,23.0,58,0.00,,,0.00,meteohub,2013-05-30 16:12:00,
2013-05-30 11:17:00,83.3,67.5,29.94,South,179,12.0,26.0,59,0.00,,,0.00,meteohub,2013-05-30 16:17:00,
2013-05-30 11:22:00,83.1,67.3,29.93,SSW,209,10.0,26.0,59,0.00,,,0.00,meteohub,2013-05-30 16:22:00,
2013-05-30 11:27:00,83.3,66.9,29.93,SSW,202,10.0,23.0,58,0.00,,,0.00,meteohub,2013-05-30 16:27:00,
2013-05-30 11:32:00,83.5,67.1,29.93,South,173,9.0,26.0,58,0.00,,,0.00,meteohub,2013-05-30 16:32:00,
2013-05-30 11:37:00,84.6,67.6,29.93,South,180,15.0,26.0,57,0.00,,,0.00,meteohub,2013-05-30 16:37:00,
2013-05-30 11:42:00,84.0,66.6,29.93,SSW,194,15.0,24.0,56,0.00,,,0.00,meteohub,2013-05-30 16:42:00,
2013-05-30 11:47:00,83.8,66.0,29.93,SW,227,19.0,25.0,55,0.00,,,0.00,meteohub,2013-05-30 16:47:00,
2013-05-30 11:52:00,83.5,66.2,29.93,South,173,8.0,28.0,56,0.00,,,0.00,meteohub,2013-05-30 16:52:00,
2013-05-30 11:57:00,83.3,66.6,29.93,SSW,205,6.0,28.0,57,0.00,,,0.00,meteohub,2013-05-30 16:57:00,
2013-05-30 12:02:00,83.8,66.9,29.93,SW,222,7.0,28.0,57,0.00,,,0.00,meteohub,2013-05-30 17:02:00,
2013-05-30 12:07:00,84.6,66.6,29.93,SSW,207,14.0,28.0,55,0.00,,,0.00,meteohub,2013-05-30 17:07:00,
2013-05-30 12:12:00,84.7,66.2,29.92,South,179,25.0,27.0,54,0.00,,,0.00,meteohub,2013-05-30 17:12:00,
2013-05-30 12:17:00,84.7,66.7,29.92,SW,227,14.0,28.0,55,0.00,,,0.00,meteohub,2013-05-30 17:17:00,
2013-05-30 12:22:00,84.7,66.2,29.92,SW,223,12.0,28.0,54,0.00,,,0.00,meteohub,2013-05-30 17:22:00,
2013-05-30 12:27:00,84.4,65.8,29.92,SW,232,10.0,27.0,54,0.00,,,0.00,meteohub,2013-05-30 17:27:00,
2013-05-30 12:32:00,84.6,66.0,29.92,SSW,196,20.0,26.0,54,0.00,,,0.00,meteohub,2013-05-30 17:32:00,
2013-05-30 12:37:00,84.6,66.0,29.92,SSW,196,19.0,29.0,54,0.00,,,0.00,meteohub,2013-05-30 17:37:00,
2013-05-30 12:42:00,84.6,66.0,29.92,SW,223,10.0,29.0,54,0.00,,,0.00,meteohub,2013-05-30 17:42:00,
2013-05-30 12:47:00,84.0,66.2,29.92,SSW,213,12.0,29.0,55,0.00,,,0.00,meteohub,2013-05-30 17:47:00,
2013-05-30 12:52:00,84.0,66.6,29.92,South,169,19.0,31.0,56,0.00,,,0.00,meteohub,2013-05-30 17:52:00,
2013-05-30 12:57:00,84.4,66.4,29.93,SSW,209,15.0,31.0,55,0.00,,,0.00,meteohub,2013-05-30 17:57:00,
2013-05-30 13:02:00,83.8,66.0,29.92,SSW,213,24.0,31.0,55,0.00,,,0.00,meteohub,2013-05-30 18:02:00,
2013-05-30 13:07:00,83.8,66.4,29.92,SW,227,5.0,28.0,56,0.00,,,0.00,meteohub,2013-05-30 18:07:00,
2013-05-30 13:12:00,83.8,66.4,29.92,SSW,201,10.0,28.0,56,0.00,,,0.00,meteohub,2013-05-30 18:12:00,
2013-05-30 13:17:00,84.6,67.1,29.92,SSW,195,6.0,28.0,56,0.00,,,0.00,meteohub,2013-05-30 18:17:00,
2013-05-30 13:22:00,84.6,66.6,29.92,SW,218,15.0,27.0,55,0.00,,,0.00,meteohub,2013-05-30 18:22:00,
2013-05-30 13:27:00,84.7,66.7,29.91,SSW,196,15.0,27.0,55,0.00,,,0.00,meteohub,2013-05-30 18:27:00,
2013-05-30 13:32:00,84.9,66.9,29.91,South,190,9.0,27.0,55,0.00,,,0.00,meteohub,2013-05-30 18:32:00,
2013-05-30 13:37:00,85.5,66.9,29.91,SSW,198,13.0,22.0,54,0.00,,,0.00,meteohub,2013-05-30 18:37:00,
2013-05-30 13:42:00,84.9,66.9,29.91,SW,223,10.0,22.0,55,0.00,,,0.00,meteohub,2013-05-30 18:42:00,
2013-05-30 13:47:00,84.4,66.9,29.91,South,182,22.0,22.0,56,0.00,,,0.00,meteohub,2013-05-30 18:47:00,
2013-05-30 13:52:00,84.6,67.1,29.91,SSW,198,7.0,25.0,56,0.00,,,0.00,meteohub,2013-05-30 18:52:00,
2013-05-30 13:57:00,84.9,66.4,29.91,SSW,205,12.0,28.0,54,0.00,,,0.00,meteohub,2013-05-30 18:57:00,
2013-05-30 14:02:00,84.7,66.2,29.90,SSW,210,11.0,28.0,54,0.00,,,0.00,meteohub,2013-05-30 19:02:00,
2013-05-30 14:07:00,84.7,66.2,29.90,SW,216,7.0,28.0,54,0.00,,,0.00,meteohub,2013-05-30 19:07:00,
2013-05-30 14:12:00,84.6,66.0,29.89,SSW,207,8.0,24.0,54,0.00,,,0.00,meteohub,2013-05-30 19:12:00,
2013-05-30 14:17:00,84.7,66.2,29.89,South,184,18.0,24.0,54,0.00,,,0.00,meteohub,2013-05-30 19:17:00,
2013-05-30 14:22:00,84.9,65.8,29.89,SSW,194,16.0,24.0,53,0.00,,,0.00,meteohub,2013-05-30 19:22:00,
2013-05-30 14:27:00,84.9,66.4,29.89,South,180,6.0,23.0,54,0.00,,,0.00,meteohub,2013-05-30 19:27:00,
2013-05-30 14:32:00,84.6,66.0,29.89,SW,215,10.0,23.0,54,0.00,,,0.00,meteohub,2013-05-30 19:32:00,
2013-05-30 14:37:00,84.7,66.2,29.89,South,170,5.0,23.0,54,0.00,,,0.00,meteohub,2013-05-30 19:37:00,
2013-05-30 14:42:00,85.8,67.3,29.88,SSW,210,13.0,24.0,54,0.00,,,0.00,meteohub,2013-05-30 19:42:00,
2013-05-30 14:47:00,86.0,66.4,29.88,South,175,14.0,26.0,52,0.00,,,0.00,meteohub,2013-05-30 19:47:00,
2013-05-30 14:52:00,84.7,68.9,29.88,SSE,152,11.0,29.0,59,0.00,,,0.00,meteohub,2013-05-30 19:52:00,
2013-05-30 14:57:00,82.0,70.0,29.88,SSW,200,8.0,29.0,67,0.02,,,0.02,meteohub,2013-05-30 19:57:00,
2013-05-30 15:02:00,81.7,69.3,29.88,South,173,5.0,29.0,66,0.02,,,0.02,meteohub,2013-05-30 20:02:00,
2013-05-30 15:07:00,81.5,68.5,29.88,SSW,195,6.0,20.0,65,0.02,,,0.02,meteohub,2013-05-30 20:07:00,
2013-05-30 15:12:00,81.7,68.7,29.88,SSW,205,5.0,14.0,65,0.02,,,0.02,meteohub,2013-05-30 20:12:00,
2013-05-30 15:17:00,81.0,68.9,29.89,SSW,207,8.0,16.0,67,0.03,,,0.03,meteohub,2013-05-30 20:17:00,
2013-05-30 15:22:00,80.6,68.5,29.88,South,180,5.0,16.0,67,0.03,,,0.03,meteohub,2013-05-30 20:22:00,
2013-05-30 15:27:00,79.9,68.7,29.89,WSW,258,6.0,21.0,69,0.03,,,0.03,meteohub,2013-05-30 20:27:00,
2013-05-30 15:32:00,78.4,68.7,29.88,SSW,199,8.0,21.0,72,0.04,,,0.04,meteohub,2013-05-30 20:32:00,
2013-05-30 15:37:00,77.5,68.5,29.88,SSW,196,14.0,21.0,74,0.04,,,0.04,meteohub,2013-05-30 20:37:00,
2013-05-30 15:42:00,77.9,68.9,29.87,South,173,4.0,19.0,74,0.04,,,0.04,meteohub,2013-05-30 20:42:00,
2013-05-30 15:48:00,78.4,69.1,29.87,South,178,7.0,15.0,73,0.04,,,0.04,meteohub,2013-05-30 20:48:00,
2013-05-30 15:53:00,78.8,67.8,29.87,SSE,153,12.0,14.0,69,0.04,,,0.04,meteohub,2013-05-30 20:53:00,
2013-05-30 15:58:00,79.0,68.0,29.86,SSE,166,6.0,23.0,69,0.02,,,0.04,meteohub,2013-05-30 20:58:00,
2013-05-30 16:03:00,79.2,68.2,29.86,South,170,5.0,23.0,69,0.02,,,0.04,meteohub,2013-05-30 21:03:00,
2013-05-30 16:08:00,79.2,68.5,29.86,South,182,7.0,23.0,70,0.02,,,0.04,meteohub,2013-05-30 21:08:00,
2013-05-30 16:13:00,79.2,68.2,29.86,SSE,166,10.0,18.0,69,0.02,,,0.04,meteohub,2013-05-30 21:13:00,
2013-05-30 16:18:00,79.2,68.2,29.87,South,174,7.0,18.0,69,0.01,,,0.04,meteohub,2013-05-30 21:18:00,
2013-05-30 16:23:00,79.0,68.4,29.88,SSE,151,6.0,19.0,70,0.01,,,0.04,meteohub,2013-05-30 21:23:00,
2013-05-30 16:28:00,78.3,68.0,29.87,South,169,11.0,20.0,71,0.00,,,0.04,meteohub,2013-05-30 21:28:00,
2013-05-30 16:33:00,77.9,67.3,29.87,SSW,200,8.0,21.0,70,0.00,,,0.04,meteohub,2013-05-30 21:33:00,
2013-05-30 16:38:00,77.2,67.1,29.86,South,187,23.0,23.0,71,0.00,,,0.04,meteohub,2013-05-30 21:38:00,
2013-05-30 16:43:00,76.3,66.6,29.85,South,182,13.0,23.0,72,0.00,,,0.04,meteohub,2013-05-30 21:43:00,
2013-05-30 16:48:00,75.6,66.4,29.85,South,170,16.0,23.0,73,0.00,,,0.04,meteohub,2013-05-30 21:48:00,
2013-05-30 16:54:00,75.0,65.8,29.84,SSE,150,3.0,23.0,73,0.00,,,0.04,meteohub,2013-05-30 21:54:00,
2013-05-30 16:59:00,75.4,65.7,29.85,SE,134,5.0,21.0,72,0.00,,,0.04,meteohub,2013-05-30 21:59:00,
2013-05-30 17:04:00,75.6,65.8,29.86,SSE,163,6.0,20.0,72,0.00,,,0.04,meteohub,2013-05-30 22:04:00,
2013-05-30 17:09:00,75.7,65.7,29.85,South,171,3.0,20.0,71,0.00,,,0.04,meteohub,2013-05-30 22:09:00,
2013-05-30 17:14:00,75.9,66.2,29.86,South,179,8.0,18.0,72,0.00,,,0.04,meteohub,2013-05-30 22:14:00,
2013-05-30 17:19:00,76.8,66.7,29.86,South,184,2.0,18.0,71,0.00,,,0.04,meteohub,2013-05-30 22:19:00,
2013-05-30 17:24:00,77.7,67.1,29.86,South,171,6.0,16.0,70,0.00,,,0.04,meteohub,2013-05-30 22:24:00,
2013-05-30 17:29:00,78.3,67.3,29.86,SSW,199,9.0,19.0,69,0.00,,,0.04,meteohub,2013-05-30 22:29:00,
2013-05-30 17:34:00,78.4,67.5,29.86,South,174,6.0,19.0,69,0.00,,,0.04,meteohub,2013-05-30 22:34:00,
2013-05-30 17:39:00,79.0,68.0,29.85,South,170,8.0,19.0,69,0.00,,,0.04,meteohub,2013-05-30 22:39:00,
2013-05-30 17:44:00,79.7,68.5,29.86,SSW,195,6.0,19.0,69,0.00,,,0.04,meteohub,2013-05-30 22:44:00,
2013-05-30 17:49:00,79.9,68.0,29.85,South,173,5.0,19.0,67,0.00,,,0.04,meteohub,2013-05-30 22:49:00,
2013-05-30 17:54:00,79.9,68.4,29.85,South,186,10.0,19.0,68,0.00,,,0.04,meteohub,2013-05-30 22:54:00,
2013-05-30 18:00:00,79.5,68.5,29.86,SSW,193,8.0,15.0,69,0.00,,,0.04,meteohub,2013-05-30 23:00:00,
2013-05-30 18:05:00,80.1,68.9,29.86,South,176,13.0,15.0,69,0.00,,,0.04,meteohub,2013-05-30 23:05:00,
2013-05-30 18:10:00,79.9,68.7,29.86,SSE,159,8.0,16.0,69,0.00,,,0.04,meteohub,2013-05-30 23:10:00,
2013-05-30 18:15:00,79.7,68.5,29.86,South,173,7.0,18.0,69,0.00,,,0.04,meteohub,2013-05-30 23:15:00,
2013-05-30 18:20:00,79.3,68.7,29.86,SE,128,8.0,18.0,70,0.00,,,0.04,meteohub,2013-05-30 23:20:00,
2013-05-30 18:25:00,79.3,68.7,29.86,South,178,5.0,15.0,70,0.00,,,0.04,meteohub,2013-05-30 23:25:00,
2013-05-30 18:30:00,79.9,69.3,29.85,South,176,4.0,14.0,70,0.00,,,0.04,meteohub,2013-05-30 23:30:00,
2013-05-30 18:35:00,80.1,68.9,29.85,SSE,167,8.0,14.0,69,0.00,,,0.04,meteohub,2013-05-30 23:35:00,
2013-05-30 18:40:00,80.2,69.1,29.85,SE,127,3.0,14.0,69,0.00,,,0.04,meteohub,2013-05-30 23:40:00,
2013-05-30 18:45:00,80.2,69.1,29.85,South,182,8.0,13.0,69,0.00,,,0.04,meteohub,2013-05-30 23:45:00,
2013-05-30 18:50:00,80.2,69.1,29.85,South,184,9.0,13.0,69,0.00,,,0.04,meteohub,2013-05-30 23:50:00,
2013-05-30 18:55:00,80.2,69.6,29.85,SSW,207,5.0,13.0,70,0.00,,,0.04,meteohub,2013-05-30 23:55:00,
2013-05-30 19:00:00,80.2,69.6,29.84,SSE,168,4.0,12.0,70,0.00,,,0.04,meteohub,2013-05-31 00:00:00,
2013-05-30 19:05:00,80.2,70.0,29.84,South,179,7.0,11.0,71,0.00,,,0.04,meteohub,2013-05-31 00:05:00,
2013-05-30 19:10:00,79.9,69.6,29.84,SSW,196,10.0,11.0,71,0.00,,,0.04,meteohub,2013-05-31 00:10:00,
2013-05-30 19:15:00,79.9,69.6,29.85,South,177,11.0,13.0,71,0.00,,,0.04,meteohub,2013-05-31 00:15:00,
2013-05-30 19:20:00,79.9,69.3,29.84,SSE,162,9.0,15.0,70,0.00,,,0.04,meteohub,2013-05-31 00:20:00,
2013-05-30 19:25:00,79.9,68.7,29.84,SSE,163,12.0,15.0,69,0.00,,,0.04,meteohub,2013-05-31 00:25:00,
2013-05-30 19:31:00,79.7,68.2,29.84,South,177,10.0,26.0,68,0.00,,,0.04,meteohub,2013-05-31 00:31:00,
2013-05-30 19:36:00,79.5,68.0,29.85,South,183,5.0,26.0,68,0.00,,,0.04,meteohub,2013-05-31 00:36:00,
2013-05-30 19:41:00,79.3,68.4,29.85,SSW,202,6.0,23.0,69,0.00,,,0.04,meteohub,2013-05-31 00:41:00,
2013-05-30 19:46:00,79.2,68.2,29.85,South,188,9.0,23.0,69,0.00,,,0.04,meteohub,2013-05-31 00:46:00,
2013-05-30 19:51:00,79.0,68.0,29.86,South,182,10.0,16.0,69,0.00,,,0.04,meteohub,2013-05-31 00:51:00,
2013-05-30 19:56:00,78.8,68.2,29.86,South,171,2.0,20.0,70,0.00,,,0.04,meteohub,2013-05-31 00:56:00,
2013-05-30 20:01:00,79.0,68.0,29.87,South,191,12.0,20.0,69,0.00,,,0.04,meteohub,2013-05-31 01:01:00,
2013-05-30 20:06:00,78.6,67.6,29.87,South,175,6.0,19.0,69,0.00,,,0.04,meteohub,2013-05-31 01:06:00,
2013-05-30 20:11:00,78.6,67.6,29.86,South,190,5.0,16.0,69,0.00,,,0.04,meteohub,2013-05-31 01:11:00,
2013-05-30 20:16:00,78.6,67.6,29.86,SE,144,10.0,15.0,69,0.00,,,0.04,meteohub,2013-05-31 01:16:00,
2013-05-30 20:21:00,78.6,67.6,29.86,South,188,11.0,15.0,69,0.00,,,0.04,meteohub,2013-05-31 01:21:00,
2013-05-30 20:27:00,78.4,67.5,29.86,South,190,5.0,14.0,69,0.00,,,0.04,meteohub,2013-05-31 01:27:00,
2013-05-30 20:32:00,78.3,67.3,29.86,SSE,164,9.0,15.0,69,0.00,,,0.04,meteohub,2013-05-31 01:32:00,
2013-05-30 20:37:00,77.9,67.3,29.86,SSE,167,8.0,15.0,70,0.00,,,0.04,meteohub,2013-05-31 01:37:00,
2013-05-30 20:42:00,78.1,67.5,29.86,SSW,192,6.0,16.0,70,0.00,,,0.04,meteohub,2013-05-31 01:42:00,
2013-05-30 20:47:00,78.1,67.1,29.86,SSE,160,10.0,16.0,69,0.00,,,0.04,meteohub,2013-05-31 01:47:00,
2013-05-30 20:52:00,77.9,67.3,29.86,South,184,6.0,20.0,70,0.00,,,0.04,meteohub,2013-05-31 01:52:00,
2013-05-30 20:57:00,77.7,66.7,29.86,South,186,13.0,20.0,69,0.00,,,0.04,meteohub,2013-05-31 01:57:00,
2013-05-30 21:02:00,77.5,66.9,29.86,SSW,198,4.0,13.0,70,0.00,,,0.04,meteohub,2013-05-31 02:02:00,
2013-05-30 21:07:00,77.5,67.5,29.87,South,182,8.0,15.0,71,0.00,,,0.04,meteohub,2013-05-31 02:07:00,
2013-05-30 21:12:00,77.4,67.3,29.87,SSE,164,7.0,20.0,71,0.00,,,0.04,meteohub,2013-05-31 02:12:00,
2013-05-30 21:17:00,77.4,67.3,29.87,SE,145,8.0,20.0,71,0.00,,,0.04,meteohub,2013-05-31 02:17:00,
2013-05-30 21:22:00,77.5,67.5,29.88,South,188,5.0,20.0,71,0.00,,,0.04,meteohub,2013-05-31 02:22:00,
2013-05-30 21:27:00,77.5,66.9,29.88,SSE,148,8.0,16.0,70,0.00,,,0.04,meteohub,2013-05-31 02:27:00,
2013-05-30 21:32:00,77.5,67.5,29.88,South,171,4.0,16.0,71,0.00,,,0.04,meteohub,2013-05-31 02:32:00,
2013-05-30 21:37:00,77.5,67.5,29.88,SSW,199,6.0,16.0,71,0.00,,,0.04,meteohub,2013-05-31 02:37:00,
2013-05-30 21:42:00,77.5,67.8,29.88,SW,218,7.0,15.0,72,0.00,,,0.04,meteohub,2013-05-31 02:42:00,
2013-05-30 21:47:00,77.5,67.5,29.88,SSW,196,4.0,15.0,71,0.00,,,0.04,meteohub,2013-05-31 02:47:00,
2013-05-30 21:52:00,77.7,67.6,29.88,SSW,200,3.0,15.0,71,0.00,,,0.04,meteohub,2013-05-31 02:52:00,
2013-05-30 21:57:00,77.5,67.5,29.88,SSE,161,12.0,15.0,71,0.00,,,0.04,meteohub,2013-05-31 02:57:00,
2013-05-30 22:02:00,77.4,67.6,29.88,South,184,9.0,16.0,72,0.00,,,0.04,meteohub,2013-05-31 03:02:00,
2013-05-30 22:07:00,77.5,67.8,29.88,South,191,10.0,16.0,72,0.00,,,0.04,meteohub,2013-05-31 03:07:00,
2013-05-30 22:12:00,77.5,67.8,29.88,South,176,6.0,16.0,72,0.00,,,0.04,meteohub,2013-05-31 03:12:00,
2013-05-30 22:17:00,77.4,67.3,29.88,South,169,7.0,12.0,71,0.00,,,0.04,meteohub,2013-05-31 03:17:00,
2013-05-30 22:22:00,77.4,67.6,29.88,South,181,6.0,12.0,72,0.00,,,0.04,meteohub,2013-05-31 03:22:00,
2013-05-30 22:27:00,77.2,67.8,29.88,South,188,10.0,18.0,73,0.00,,,0.04,meteohub,2013-05-31 03:27:00,
2013-05-30 22:32:00,77.2,67.8,29.88,SW,214,5.0,18.0,73,0.00,,,0.04,meteohub,2013-05-31 03:32:00,
2013-05-30 22:37:00,77.2,67.5,29.88,SSE,168,6.0,18.0,72,0.00,,,0.04,meteohub,2013-05-31 03:37:00,
2013-05-30 22:42:00,77.2,68.2,29.88,SSW,196,12.0,12.0,74,0.00,,,0.04,meteohub,2013-05-31 03:42:00,
2013-05-30 22:47:00,76.5,68.0,29.90,SSW,199,4.0,16.0,75,0.01,,,0.05,meteohub,2013-05-31 03:47:00,
2013-05-30 22:52:00,75.9,64.9,29.89,SSW,209,12.0,19.0,69,0.01,,,0.05,meteohub,2013-05-31 03:52:00,
2013-05-30 22:57:00,74.8,63.5,29.90,South,183,8.0,19.0,68,0.01,,,0.05,meteohub,2013-05-31 03:57:00,
2013-05-30 23:01:00,74.1,63.7,29.89,South,179,5.0,16.0,70,0.01,,,0.05,meteohub,2013-05-31 04:01:00,
2013-05-30 23:02:00,74.1,63.7,29.89,South,188,2.0,16.0,70,0.01,,,0.05,meteohub,2013-05-31 04:02:00,
2013-05-30 23:03:00,73.9,63.5,29.88,SW,220,0.0,16.0,70,0.01,,,0.05,meteohub,2013-05-31 04:03:00,
2013-05-30 23:04:00,73.9,63.5,29.89,SSW,206,5.0,16.0,70,0.01,,,0.05,meteohub,2013-05-31 04:04:00,
2013-05-30 23:05:00,73.9,63.5,29.89,WSW,248,1.0,16.0,70,0.01,,,0.05,meteohub,2013-05-31 04:05:00,
2013-05-30 23:10:00,73.8,63.7,29.88,South,187,6.0,11.0,71,0.01,,,0.05,meteohub,2013-05-31 04:10:00,
2013-05-30 23:15:00,73.9,63.9,29.88,SSW,213,4.0,9.0,71,0.01,,,0.05,meteohub,2013-05-31 04:15:00,
2013-05-30 23:20:00,73.9,63.9,29.89,SW,220,2.0,9.0,71,0.01,,,0.05,meteohub,2013-05-31 04:20:00,
2013-05-30 23:26:00,74.1,64.9,29.91,West,264,20.0,20.0,73,0.01,,,0.05,meteohub,2013-05-31 04:26:00,
2013-05-30 23:31:00,73.2,66.4,29.91,SW,215,10.0,28.0,79,0.02,,,0.06,meteohub,2013-05-31 04:31:00,
2013-05-30 23:36:00,72.1,65.7,29.92,SW,227,5.0,28.0,80,0.02,,,0.06,meteohub,2013-05-31 04:36:00,
2013-05-30 23:41:00,71.8,66.0,29.92,South,171,5.0,28.0,82,0.03,,,0.07,meteohub,2013-05-31 04:41:00,
2013-05-30 23:46:00,70.5,65.1,29.93,SSW,207,9.0,18.0,83,0.07,,,0.12,meteohub,2013-05-31 04:46:00,
2013-05-30 23:51:00,69.4,64.4,29.93,SSE,159,4.0,19.0,84,0.07,,,0.12,meteohub,2013-05-31 04:51:00,
2013-05-30 23:56:00,69.1,64.4,29.92,SSW,207,10.0,22.0,85,0.07,,,0.12,meteohub,2013-05-31 04:56:00,